| time (UTC) | temp C | wind direction | speed KPH | gust KPH | rain 1hr cm | rain 24hr cm | rain mn cm | humidity % | barometer mb |
| 20260503225228 | 17 | 201 | 4.8 | 9.7 | 0.00 | 0.00 | 0.00 | 53 | 1010.2 |
| 20260503224728 | 17 | 180 | 4.8 | 9.7 | 0.00 | 0.00 | 0.00 | 53 | 1010.1 |
| 20260503224252 | 17 | 200 | 6.4 | 11.3 | 0.00 | 0.00 | 0.00 | 54 | 1010.2 |
| 20260503223730 | 16 | 215 | 4.8 | 11.3 | 0.00 | 0.00 | 0.00 | 55 | 1010.1 |
| 20260503223505 | 16 | 201 | 6.4 | 11.3 | 0.00 | 0.00 | 0.00 | 55 | 1010.1 |
| 20260503223001 | 16 | 184 | 6.4 | 11.3 | 0.00 | 0.00 | 0.00 | 55 | 1010.2 |
| 20260503222228 | 16 | 186 | 6.4 | 11.3 | 0.00 | 0.00 | 0.00 | 55 | 1010.3 |
| 20260503221728 | 16 | 186 | 3.2 | 4.8 | 0.00 | 0.00 | 0.00 | 54 | 1010.3 |
| 20260503221230 | 16 | 177 | 1.6 | 4.8 | 0.00 | 0.00 | 0.00 | 54 | 1010.3 |
| 20260503221011 | 16 | 177 | 3.2 | 4.8 | 0.00 | 0.00 | 0.00 | 54 | 1010.3 |
| 20260503220228 | 16 | 177 | 3.2 | 3.2 | 0.00 | 0.00 | 0.00 | 53 | 1010.5 |
| 20260503215728 | 16 | 177 | 1.6 | 4.8 | 0.00 | 0.00 | 0.00 | 52 | 1010.4 |
| 20260503215510 | 17 | 177 | 3.2 | 4.8 | 0.00 | 0.00 | 0.00 | 52 | 1010.4 |
| 20260503214725 | 17 | 177 | 1.6 | 4.8 | 0.00 | 0.00 | 0.00 | 51 | 1010.5 |
| 20260503214227 | 17 | 177 | 3.2 | 6.4 | 0.00 | 0.00 | 0.00 | 50 | 1010.4 |
| 20260503213727 | 17 | 165 | 3.2 | 6.4 | 0.00 | 0.00 | 0.00 | 50 | 1010.5 |
| 20260503213228 | 17 | 165 | 3.2 | 6.4 | 0.00 | 0.00 | 0.00 | 49 | 1010.4 |
| 20260503212726 | 17 | 162 | 3.2 | 6.4 | 0.00 | 0.00 | 0.00 | 49 | 1010.4 |
| 20260503212311 | 18 | 173 | 3.2 | 6.4 | 0.00 | 0.00 | 0.00 | 47 | 1010.5 |
| 20260503212257 | 18 | 172 | 1.6 | 6.4 | 0.00 | 0.00 | 0.00 | 49 | 1010.5 |
| 20260503211224 | 18 | 173 | 3.2 | 6.4 | 0.00 | 0.00 | 0.00 | 47 | 1010.4 |
| 20260503210725 | 18 | 173 | 1.6 | 6.4 | 0.00 | 0.00 | 0.00 | 46 | 1010.5 |
| 20260503210226 | 19 | 177 | 3.2 | 6.4 | 0.00 | 0.00 | 0.00 | 46 | 1010.5 |
| 20260503205724 | 19 | 179 | 3.2 | 6.4 | 0.00 | 0.00 | 0.00 | 45 | 1010.5 |
| 20260503205226 | 20 | 186 | 1.6 | 6.4 | 0.00 | 0.00 | 0.00 | 45 | 1010.5 |
| 20260503204726 | 20 | 186 | 3.2 | 9.7 | 0.00 | 0.00 | 0.00 | 44 | 1010.5 |
| 20260503204511 | 20 | 184 | 3.2 | 9.7 | 0.00 | 0.00 | 0.00 | 44 | 1010.5 |
| 20260503203726 | 20 | 196 | 3.2 | 14.5 | 0.00 | 0.00 | 0.00 | 43 | 1010.5 |
| 20260503203225 | 20 | 172 | 4.8 | 14.5 | 0.00 | 0.00 | 0.00 | 43 | 1010.5 |
| 20260503203008 | 20 | 189 | 4.8 | 11.3 | 0.00 | 0.00 | 0.00 | 44 | 1010.5 |
| 20260503202205 | 20 | 206 | 6.4 | 16.1 | 0.00 | 0.00 | 0.00 | 45 | 1010.7 |
| 20260503201704 | 19 | 194 | 9.7 | 16.1 | 0.00 | 0.00 | 0.00 | 45 | 1010.7 |
| 20260503201203 | 19 | 203 | 6.4 | 11.3 | 0.00 | 0.00 | 0.00 | 45 | 1010.7 |
| 20260503200704 | 19 | 184 | 4.8 | 6.4 | 0.00 | 0.00 | 0.00 | 45 | 1010.7 |
| 20260503200204 | 19 | 187 | 3.2 | 8.0 | 0.00 | 0.00 | 0.00 | 45 | 1010.7 |
| 20260503195705 | 19 | 190 | 4.8 | 8.0 | 0.00 | 0.00 | 0.00 | 44 | 1010.8 |
| 20260503195433 | 19 | 189 | 6.4 | 8.0 | 0.00 | 0.00 | 0.00 | 44 | 1010.8 |
| 20260503194638 | 19 | 191 | 4.8 | 8.0 | 0.00 | 0.00 | 0.00 | 44 | 1010.9 |
| 20260503194422 | 19 | 191 | 6.4 | 8.0 | 0.00 | 0.00 | 0.00 | 44 | 1010.9 |
| 20260503193636 | 20 | 193 | 4.8 | 8.0 | 0.00 | 0.00 | 0.00 | 44 | 1010.8 |
| 20260503193412 | 20 | 191 | 4.8 | 8.0 | 0.00 | 0.00 | 0.00 | 43 | 1010.8 |
| 20260503192636 | 20 | 193 | 4.8 | 9.7 | 0.00 | 0.00 | 0.00 | 42 | 1010.9 |
| 20260503192132 | 20 | 196 | 6.4 | 9.7 | 0.00 | 0.00 | 0.00 | 42 | 1010.9 |
| 20260503191633 | 20 | 200 | 4.8 | 8.0 | 0.00 | 0.00 | 0.00 | 41 | 1010.9 |
| 20260503191133 | 20 | 200 | 4.8 | 8.0 | 0.00 | 0.00 | 0.00 | 40 | 1010.9 |
| 20260503190633 | 21 | 200 | 6.4 | 9.7 | 0.00 | 0.00 | 0.00 | 40 | 1010.9 |
| 20260503190133 | 21 | 200 | 6.4 | 9.7 | 0.00 | 0.00 | 0.00 | 39 | 1010.9 |
| 20260503185637 | 21 | 201 | 6.4 | 9.7 | 0.00 | 0.00 | 0.00 | 39 | 1010.9 |
| 20260503185132 | 21 | 203 | 6.4 | 9.7 | 0.00 | 0.00 | 0.00 | 40 | 1010.8 |
| 20260503184634 | 20 | 206 | 6.4 | 9.7 | 0.00 | 0.00 | 0.00 | 39 | 1010.8 |
| 20260503184133 | 20 | 206 | 8.0 | 11.3 | 0.00 | 0.00 | 0.00 | 40 | 1010.8 |
| 20260503183633 | 21 | 213 | 8.0 | 11.3 | 0.00 | 0.00 | 0.00 | 40 | 1010.7 |
| 20260503183132 | 21 | 201 | 8.0 | 8.0 | 0.00 | 0.00 | 0.00 | 41 | 1010.7 |
| 20260503182634 | 21 | 214 | 4.8 | 8.0 | 0.00 | 0.00 | 0.00 | 40 | 1010.7 |
| 20260503182139 | 21 | 213 | 6.4 | 6.4 | 0.00 | 0.00 | 0.00 | 40 | 1010.7 |
| 20260503181634 | 21 | 213 | 4.8 | 8.0 | 0.00 | 0.00 | 0.00 | 39 | 1010.5 |
| 20260503181132 | 22 | 213 | 6.4 | 8.0 | 0.00 | 0.00 | 0.00 | 38 | 1010.5 |
| 20260503180709 | 22 | 213 | 4.8 | 11.3 | 0.00 | 0.00 | 0.00 | 36 | 1010.4 |
| 20260503180653 | 22 | 213 | 4.8 | 8.0 | 0.00 | 0.00 | 0.00 | 38 | 1010.5 |
| 20260503175922 | 23 | 213 | 6.4 | 11.3 | 0.00 | 0.00 | 0.00 | 36 | 1010.4 |
| 20260503175133 | 23 | 204 | 6.4 | 8.0 | 0.00 | 0.00 | 0.00 | 36 | 1010.4 |
| 20260503174917 | 23 | 215 | 6.4 | 9.7 | 0.00 | 0.00 | 0.00 | 35 | 1010.4 |
| 20260503174133 | 23 | 213 | 6.4 | 9.7 | 0.00 | 0.00 | 0.00 | 34 | 1010.4 |
| 20260503173631 | 23 | 214 | 6.4 | 8.0 | 0.00 | 0.00 | 0.00 | 33 | 1010.5 |
| 20260503173132 | 24 | 206 | 6.4 | 8.0 | 0.00 | 0.00 | 0.00 | 33 | 1010.5 |
| 20260503172632 | 24 | 218 | 4.8 | 9.7 | 0.00 | 0.00 | 0.00 | 32 | 1010.5 |
| 20260503172133 | 24 | 218 | 6.4 | 9.7 | 0.00 | 0.00 | 0.00 | 32 | 1010.5 |
| 20260503171633 | 24 | 221 | 8.0 | 9.7 | 0.00 | 0.00 | 0.00 | 31 | 1010.5 |
| 20260503171133 | 25 | 211 | 6.4 | 11.3 | 0.00 | 0.00 | 0.00 | 31 | 1010.5 |
| 20260503170632 | 25 | 220 | 8.0 | 14.5 | 0.00 | 0.00 | 0.00 | 29 | 1010.5 |
| 20260503170130 | 25 | 220 | 11.3 | 16.1 | 0.00 | 0.00 | 0.00 | 29 | 1010.4 |
| 20260503160133 | 26 | 162 | 8.0 | 14.5 | 0.00 | 0.00 | 0.00 | 28 | 1010.5 |
| 20260503150633 | 27 | 194 | 9.7 | 19.3 | 0.00 | 0.00 | 0.00 | 28 | 1011.0 |
| 20260503150132 | 27 | 193 | 11.3 | 20.9 | 0.00 | 0.00 | 0.00 | 28 | 1011.1 |
| 20260503140132 | 27 | 184 | 17.7 | 22.5 | 0.00 | 0.00 | 0.00 | 28 | 1011.5 |
| 20260503131131 | 27 | 259 | 11.3 | 25.7 | 0.00 | 0.00 | 0.00 | 30 | 1012.0 |
| 20260503130630 | 27 | 189 | 16.1 | 24.1 | 0.00 | 0.00 | 0.00 | 28 | 1012.2 |
| 20260503130132 | 28 | 187 | 8.0 | 22.5 | 0.00 | 0.00 | 0.00 | 27 | 1012.2 |
| 20260503120114 | 27 | 203 | 9.7 | 20.9 | 0.00 | 0.00 | 0.00 | 29 | 1012.7 |
| 20260503110602 | 27 | 220 | 14.5 | 25.7 | 0.00 | 0.00 | 0.00 | 29 | 1013.2 |
| 20260503081606 | 25 | 241 | 16.1 | 25.7 | 0.00 | 0.00 | 0.00 | 33 | 1014.2 |
| 20260503081551 | 25 | 197 | 25.7 | 35.4 | 0.00 | 0.00 | 0.00 | 32 | 1014.2 |
| 20260503080532 | 25 | 200 | 20.9 | 25.7 | 0.00 | 0.00 | 0.00 | 33 | 1014.1 |
| 20260503072525 | 22 | 198 | 17.7 | 30.6 | 0.00 | 0.00 | 0.00 | 38 | 1014.1 |
| 20260503072027 | 22 | 206 | 19.3 | 30.6 | 0.00 | 0.00 | 0.00 | 39 | 1014.1 |
| 20260503071529 | 22 | 207 | 16.1 | 25.7 | 0.00 | 0.00 | 0.00 | 40 | 1014.1 |
| 20260503071026 | 21 | 197 | 14.5 | 25.7 | 0.00 | 0.00 | 0.00 | 40 | 1014.1 |
| 20260503070528 | 21 | 177 | 20.9 | 25.7 | 0.00 | 0.00 | 0.00 | 41 | 1014.1 |
| 20260503054931 | 18 | 194 | 14.5 | 24.1 | 0.00 | 0.00 | 0.00 | 46 | 1014.2 |
| 20260503054426 | 17 | 213 | 12.9 | 22.5 | 0.00 | 0.00 | 0.00 | 47 | 1014.2 |
| 20260503053923 | 17 | 222 | 14.5 | 27.4 | 0.00 | 0.00 | 0.00 | 46 | 1014.1 |
| 20260503053425 | 17 | 244 | 20.9 | 27.4 | 0.00 | 0.00 | 0.00 | 46 | 1014.2 |
| 20260503052925 | 17 | 201 | 17.7 | 27.4 | 0.00 | 0.00 | 0.00 | 47 | 1014.2 |
| 20260503052424 | 17 | 214 | 17.7 | 27.4 | 0.00 | 0.00 | 0.00 | 47 | 1014.2 |
| 20260503052007 | 17 | 225 | 16.1 | 22.5 | 0.00 | 0.00 | 0.00 | 47 | 1014.3 |
| 20260503051949 | 17 | 183 | 16.1 | 22.5 | 0.00 | 0.00 | 0.00 | 47 | 1014.2 |
| 20260503051207 | 17 | 182 | 16.1 | 25.7 | 0.00 | 0.00 | 0.00 | 48 | 1014.3 |
| 20260503050424 | 17 | 215 | 12.9 | 29.0 | 0.00 | 0.00 | 0.00 | 48 | 1014.3 |
| 20260503045924 | 16 | 197 | 19.3 | 29.0 | 0.00 | 0.00 | 0.00 | 49 | 1014.3 |
| 20260503045423 | 16 | 207 | 20.9 | 22.5 | 0.00 | 0.00 | 0.00 | 51 | 1014.2 |
| 20260503044924 | 15 | 208 | 16.1 | 22.5 | 0.00 | 0.00 | 0.00 | 54 | 1014.3 |
| 20260503044423 | 13 | 193 | 12.9 | 20.9 | 0.00 | 0.00 | 0.00 | 60 | 1014.2 |
| 20260503043924 | 12 | 215 | 11.3 | 19.3 | 0.00 | 0.00 | 0.00 | 63 | 1014.3 |
| 20260503043701 | 10 | 200 | 9.7 | 19.3 | 0.00 | 0.00 | 0.00 | 70 | 1014.2 |
| 20260503042924 | 10 | 211 | 4.8 | 16.1 | 0.00 | 0.00 | 0.00 | 71 | 1014.3 |
| 20260503042423 | 9 | 165 | 3.2 | 8.0 | 0.00 | 0.00 | 0.00 | 71 | 1014.2 |
| 20260503042216 | 9 | 159 | 3.2 | 6.4 | 0.00 | 0.00 | 0.00 | 71 | 1014.3 |
| 20260503041422 | 9 | 159 | 3.2 | 6.4 | 0.00 | 0.00 | 0.00 | 71 | 1014.3 |
| 20260503041212 | 9 | 159 | 4.8 | 4.8 | 0.00 | 0.00 | 0.00 | 71 | 1014.3 |
| 20260503040421 | 9 | 159 | 4.8 | 6.4 | 0.00 | 0.00 | 0.00 | 71 | 1014.5 |
| 20260503040009 | 9 | 160 | 3.2 | 6.4 | 0.00 | 0.00 | 0.00 | 71 | 1014.4 |
| 20260503035953 | 9 | 160 | 3.2 | 6.4 | 0.00 | 0.00 | 0.00 | 71 | 1014.4 |
| 20260503034923 | 8 | 160 | 3.2 | 6.4 | 0.00 | 0.00 | 0.00 | 71 | 1014.4 |
| 20260503034421 | 8 | 160 | 4.8 | 6.4 | 0.00 | 0.00 | 0.00 | 71 | 1014.4 |
| 20260503033921 | 8 | 162 | 4.8 | 4.8 | 0.00 | 0.00 | 0.00 | 71 | 1014.4 |
| 20260503033422 | 8 | 163 | 3.2 | 6.4 | 0.00 | 0.00 | 0.00 | 71 | 1014.3 |
| 20260503032923 | 8 | 163 | 4.8 | 6.4 | 0.00 | 0.00 | 0.00 | 72 | 1014.3 |
| 20260503032422 | 8 | 163 | 3.2 | 6.4 | 0.00 | 0.00 | 0.00 | 72 | 1014.4 |
| 20260503031921 | 8 | 163 | 4.8 | 4.8 | 0.00 | 0.00 | 0.00 | 72 | 1014.4 |
| 20260503031718 | 8 | 163 | 3.2 | 6.4 | 0.00 | 0.00 | 0.00 | 72 | 1014.3 |
| 20260503030921 | 8 | 163 | 3.2 | 6.4 | 0.00 | 0.00 | 0.00 | 72 | 1014.3 |
| 20260503030422 | 8 | 163 | 3.2 | 4.8 | 0.00 | 0.00 | 0.00 | 72 | 1014.4 |
| 20260503030211 | 8 | 163 | 3.2 | 4.8 | 0.00 | 0.00 | 0.00 | 72 | 1014.4 |
| 20260503025422 | 8 | 163 | 3.2 | 3.2 | 0.00 | 0.00 | 0.00 | 72 | 1014.4 |
| 20260503024921 | 8 | 163 | 3.2 | 4.8 | 0.00 | 0.00 | 0.00 | 72 | 1014.4 |
| 20260503024421 | 8 | 163 | 3.2 | 4.8 | 0.00 | 0.00 | 0.00 | 72 | 1014.4 |
| 20260503023920 | 8 | 163 | 3.2 | 4.8 | 0.00 | 0.00 | 0.00 | 72 | 1014.5 |
| 20260503023421 | 8 | 167 | 3.2 | 4.8 | 0.00 | 0.00 | 0.00 | 72 | 1014.5 |
| 20260503022921 | 8 | 166 | 3.2 | 6.4 | 0.00 | 0.00 | 0.00 | 72 | 1014.5 |
| 20260503022419 | 8 | 167 | 4.8 | 6.4 | 0.00 | 0.00 | 0.00 | 72 | 1014.5 |
| 20260503021920 | 9 | 167 | 3.2 | 6.4 | 0.00 | 0.00 | 0.00 | 72 | 1014.5 |
| 20260503021422 | 9 | 167 | 3.2 | 6.4 | 0.00 | 0.00 | 0.00 | 72 | 1014.5 |
| 20260503020923 | 9 | 167 | 3.2 | 4.8 | 0.00 | 0.00 | 0.00 | 72 | 1014.6 |
| 20260503020422 | 9 | 167 | 3.2 | 4.8 | 0.00 | 0.00 | 0.00 | 71 | 1014.6 |
| 20260503015921 | 9 | 167 | 1.6 | 3.2 | 0.00 | 0.00 | 0.00 | 71 | 1014.7 |
| 20260503015421 | 9 | 167 | 1.6 | 3.2 | 0.00 | 0.00 | 0.00 | 70 | 1014.7 |
| 20260503014919 | 10 | 167 | 1.6 | 3.2 | 0.00 | 0.00 | 0.00 | 70 | 1014.7 |
| 20260503014420 | 10 | 167 | 1.6 | 3.2 | 0.00 | 0.00 | 0.00 | 69 | 1014.8 |
| 20260503013920 | 10 | 167 | 0.0 | 1.6 | 0.00 | 0.00 | 0.00 | 68 | 1014.8 |
| 20260503013420 | 10 | 167 | 0.0 | 3.2 | 0.00 | 0.00 | 0.00 | 68 | 1014.8 |
| 20260503013211 | 10 | 167 | 0.0 | 3.2 | 0.00 | 0.00 | 0.00 | 67 | 1014.8 |
| 20260503012420 | 10 | 167 | 1.6 | 3.2 | 0.00 | 0.00 | 0.00 | 66 | 1014.9 |
| 20260503011920 | 11 | 167 | 1.6 | 3.2 | 0.00 | 0.00 | 0.00 | 66 | 1014.8 |
| 20260503011419 | 11 | 167 | 1.6 | 3.2 | 0.00 | 0.00 | 0.00 | 65 | 1014.9 |
| 20260503011158 | 11 | 167 | 1.6 | 3.2 | 0.00 | 0.00 | 0.00 | 64 | 1014.9 |
| 20260503010419 | 11 | 167 | 0.0 | 3.2 | 0.00 | 0.00 | 0.00 | 63 | 1014.9 |
| 20260503010207 | 11 | 167 | 1.6 | 4.8 | 0.00 | 0.00 | 0.00 | 62 | 1014.9 |
| 20260503005709 | 11 | 167 | 1.6 | 4.8 | 0.00 | 0.00 | 0.00 | 61 | 1015.0 |
| 20260503004919 | 11 | 167 | 3.2 | 6.4 | 0.00 | 0.00 | 0.00 | 61 | 1014.9 |
| 20260503004703 | 11 | 167 | 3.2 | 6.4 | 0.00 | 0.00 | 0.00 | 61 | 1014.9 |
| 20260503003950 | 11 | 167 | 3.2 | 8.0 | 0.00 | 0.00 | 0.00 | 62 | 1015.1 |
| 20260503003941 | 11 | 167 | 3.2 | 4.8 | 0.00 | 0.00 | 0.00 | 61 | 1015.1 |
| 20260503002919 | 11 | 167 | 1.6 | 8.0 | 0.00 | 0.00 | 0.00 | 62 | 1015.2 |
| 20260503002709 | 10 | 170 | 3.2 | 8.0 | 0.00 | 0.00 | 0.00 | 64 | 1015.1 |
| 20260503002208 | 10 | 172 | 3.2 | 8.0 | 0.00 | 0.00 | 0.00 | 66 | 1015.2 |
| 20260503001418 | 10 | 172 | 4.8 | 6.4 | 0.00 | 0.00 | 0.00 | 68 | 1015.2 |
| 20260503000918 | 10 | 173 | 3.2 | 4.8 | 0.00 | 0.00 | 0.00 | 71 | 1015.2 |
| 20260503000418 | 10 | 173 | 3.2 | 4.8 | 0.00 | 0.00 | 0.00 | 72 | 1015.3 |
| 20260502235917 | 10 | 174 | 1.6 | 3.2 | 0.00 | 0.00 | 0.00 | 73 | 1015.4 |
| 20260502235417 | 10 | 174 | 1.6 | 3.2 | 0.00 | 0.00 | 0.00 | 73 | 1015.5 |
| 20260502234918 | 10 | 174 | 0.0 | 3.2 | 0.00 | 0.00 | 0.00 | 72 | 1015.5 |
| 20260502234417 | 10 | 174 | 1.6 | 1.6 | 0.00 | 0.00 | 0.00 | 72 | 1015.5 |
| 20260502233918 | 10 | 174 | 0.0 | 0.0 | 0.00 | 0.00 | 0.00 | 72 | 1015.5 |
| 20260502233417 | 10 | 174 | 0.0 | 0.0 | 0.00 | 0.00 | 0.00 | 71 | 1015.6 |
| 20260502233201 | 10 | 174 | 0.0 | 0.0 | 0.00 | 0.00 | 0.00 | 71 | 1015.6 |
| 20260502232704 | 10 | 174 | 0.0 | 0.0 | 0.00 | 0.00 | 0.00 | 71 | 1015.7 |
| 20260502231916 | 11 | 174 | 0.0 | 0.0 | 0.00 | 0.00 | 0.00 | 71 | 1015.8 |
| 20260502231418 | 11 | 174 | 0.0 | 1.6 | 0.00 | 0.00 | 0.00 | 71 | 1015.8 |
| 20260502230918 | 11 | 174 | 0.0 | 6.4 | 0.00 | 0.00 | 0.00 | 71 | 1015.8 |
| 20260502230417 | 11 | 174 | 1.6 | 6.4 | 0.00 | 0.00 | 0.00 | 71 | 1015.9 |
| 20260502225935 | 11 | 174 | 4.8 | 6.4 | 0.00 | 0.00 | 0.00 | 71 | 1015.7 |